Location: Bar�o Homem de Melo III
(19.9425°S, 43.9716°W)
Time: 19:06:20
(UTC+00:00)

Daily predictions for brighter satellites

Satellite Brightness Start Highest point End
(mag) Time Altitude Azimuth Time Altitude Azimuth Time Altitude Azimuth
Meteor 2-12 Rocket 4.5 21:31:52 10° N 21:37:58 87° E 21:44:06 10° S
ATLAS 3B R/B 3.7 21:38:22 10° S 21:44:10 28° ESE 21:49:45 10° ENE
Lacrosse 4 Rocket 1.4 21:42:46 10° SSW 21:46:54 66° ESE 21:50:55 10° NNE
Cosmos 1461 3.2 21:50:16 10° SSW 21:54:18 68° WNW 21:58:29 10° NNE
OAO 3 Rocket 4.3 21:51:12 10° SW 21:55:44 36° SSE 22:00:08 10° E
USA 81 4.3 21:51:11 10° N 21:56:27 77° W 22:01:47 10° S
ASC 2 Rocket 3.8 21:52:31 10° W 21:57:22 50° S 22:01:22 10° ESE
NOSS 3-2 (C) 4.4 21:54:11 10° SW 21:59:24 40° WNW 22:04:20 10° N
COSMOS 2455 4.4 21:53:59 10° NW 21:59:35 41° WSW 22:05:14 10° S
Sich 1 4.4 21:55:38 10° NNW 21:59:42 41° W 22:03:48 10° SSW
Aurora 2 Rocket 3.9 21:54:36 10° W 21:59:43 56° S 22:07:08 10° ESE
ARGOS 4.3 21:56:02 10° SE 22:00:06 21° E 22:04:10 10° NNE
CZ-2C R/B 3.3 21:58:44 10° SSE 22:04:28 62° E 22:09:54 10° N
Cosmos 2218 Rocket 4.0 21:59:38 10° N 22:05:49 83° E 22:12:07 10° S
USA 281 3.9 22:01:11 10° SE 22:06:53 31° ENE 22:12:33 10° NNE
CZ-2C R/B 1.7 22:03:03 10° NW 22:07:17 45° NE 22:11:29 10° ESE
CZ-4 R/B 1.2 22:04:24 10° SSE 22:08:17 72° E 22:12:07 10° N
Delta 202 4.2 22:02:22 10° W 22:08:20 80° N 22:16:19 12° E
CZ-2D R/B 4.3 22:10:02 10° S 22:13:45 49° WSW 22:17:24 10° NNW
Cosmos 1933 Rocket 4.2 22:09:52 10° NNE 22:13:54 35° E 22:17:58 10° SSE
Meteor 1-27 Rocket 3.7 22:11:55 10° S 22:17:38 86° W 22:23:10 10° N
Cosmos 2366 rocket 4.1 22:11:55 10° N 22:18:02 79° W 22:24:15 10° S
ATLAS 5 CENTAUR R/B -0.3 22:16:13 10° WNW 22:18:09 69° N 22:19:55 22° E
CENTAUR R/B 4.1 22:15:33 10° WSW 22:19:34 23° WNW 22:23:36 10° NNW
Cosmos 1437 Rocket 3.6 22:22:36 10° SSW 22:26:38 53° W 22:30:38 10° N
Geosat 4.4 22:25:59 10° NNE 22:30:55 62° WNW 22:35:55 10° SSW
Delta 198 3.8 22:27:35 10° WSW 22:31:16 51° S 22:33:23 25° ESE
SJ-11-01 4.2 22:28:50 10° SSE 22:33:33 79° ENE 22:38:14 10° N
YAOGAN 1 3.3 22:33:09 10° S 22:37:26 56° WSW 22:41:39 10° NNW
CSL-04 Debris 4.1 22:33:52 10° SSE 22:39:22 75° ENE 22:44:49 10° N
ARIANE 5 R/B 4.2 21:27:20 10° W 22:39:48 40° NNW 22:45:07 22° NNE
ATLAS 5 CENTAUR R/B 4.1 22:35:57 10° NW 22:42:44 42° WSW 22:49:24 10° S
Okean-O 4.1 22:40:05 10° S 22:44:13 38° WSW 22:48:19 10° NW
Cosmos 1242 Rocket 3.4 22:46:16 10° S 22:48:43 34° SE 22:48:43 34° SE
Cosmos 1500 3.1 22:49:55 61° NE 22:50:21 68° E 22:54:13 10° S
COSMOS 2406 4.3 22:46:44 10° SSE 22:51:27 27° ESE 22:51:51 26° ESE
Cosmos 1818 3.4 22:48:57 10° NNW 22:54:17 64° ENE 22:59:39 10° SSE
ATLAS CENTAUR R/B 1.7 22:51:12 10° SSW 22:55:38 50° ESE 22:55:48 49° ESE
Cosmos 2285 Rocket 3.9 22:50:06 10° N 22:56:19 64° ENE 23:02:33 10° SSE
Atlas Centaur 2 4.0 22:49:50 10° WSW 22:56:34 38° S 23:03:40 12° ESE
Delta 2 Rocket 3.8 22:52:10 10° WSW 22:57:09 82° SSE 22:58:28 52° ENE
Delta 7925 Rocket 4.3 22:51:02 10° WNW 22:59:54 72° NNE 23:03:35 32° E
Centaur D-1AR AC-40 3.7 22:56:57 10° NNW 23:12:43 - E 22:58:13 18° N
Cosmos 2278 Rocket 4.0 22:56:24 10° NW 23:01:21 31° WSW 23:06:22 10° S
CSL-04 Rocket 4.1 22:58:39 10° S 23:04:10 64° WSW 23:09:35 10° NNW
ASTRO E2 3.8 23:01:13 10° SW 23:04:53 33° SSE 23:05:05 33° SSE
Delta 142 4.3 23:03:12 10° SW 23:07:03 39° SSE 23:07:35 37° SE
SL-08 RB Rocket 3.6 23:02:36 10° S 23:07:08 89° WSW 23:08:03 57° NNW
H-2A R/B 3.2 23:02:08 10° S 23:07:20 45° WSW 23:12:30 10° NNW
Okean 1 3.4 23:04:14 10° S 23:07:50 71° S 23:07:50 71° S
Cosmos 1833 Rocket 3.7 23:04:28 10° S 23:08:57 30° ESE 23:08:57 30° ESE
CZ-2C R/B 4.3 23:08:06 34° NNW 23:09:43 51° W 23:14:05 10° SSW
Meteor 1-5 Rocket 4.1 23:14:36 39° N 23:16:46 85° W 23:22:17 10° S
Cosmos 468 4.4 23:11:44 10° SSW 23:17:06 85° ESE 23:17:32 76° NE
Cosmos 1934 Rocket 3.8 23:18:21 59° NNE 23:19:28 72° E 23:25:39 10° S
Milstar 3 2.8 23:15:56 10° NW 23:22:26 59° NNE 23:23:12 56° NE
Cosmos 1727 Rocket 4.3 23:17:31 10° SSW 23:23:40 62° W 23:26:26 33° NNW
SL-24 R/B - RUBIN 2 4.3 23:27:22 47° S 23:27:22 47° S 23:30:35 10° SSE
Milstar 3 Cent rocket 3.4 23:11:39 10° WSW 23:26:46 76° SSE 23:29:25 48° E
Cosmos 1048 Rocket 4.0 23:23:16 10° SSW 23:28:34 75° WNW 23:28:43 75° WNW
ATLAS 3B R/B 3.8 23:28:37 10° SW 23:34:44 35° WNW 23:37:19 26° NNW
OAO 3 Rocket 4.4 23:34:38 10° WSW 23:37:56 37° W 23:37:56 37° W
Cosmos 494 Rocket 4.4 23:36:35 10° SSW 23:40:50 59° SSW 23:40:50 59° SSW
Ariane Rocket 3.5 23:38:40 10° S 23:42:41 54° S 23:42:41 54° S
MetOp-A 4.4 23:41:21 10° S 23:46:14 64° SW 23:46:14 64° SW
CZ-2C R/B 3.2 23:43:04 10° W 23:46:09 30° SW 23:46:09 30° SW
Meteor 1-11 Rocket 4.0 23:50:12 70° WSW 23:50:12 70° WSW 23:55:59 10° S
